Regional Weather Roundup
Issued by NWS Sterling, VA

Home | Current Version | Previous Version | Graphics & Text | Print | Product List | Glossary On
Versions: 1 2 3 4 5 6 7 8 9 10 11 12 13 14 15 16 17 18 19 20 21 22 23 24 25 26 27 28 29 30 31 32 33 34 35 36 37 38 39 40 41 42 43 44 45 46 47 48 49 50
000
ASUS41 KLWX 250210
RWRLWX

REGIONAL WEATHER ROUNDUP
NATIONAL WEATHER SERVICE BALTIMORE MD/WASHINGTON DC
1000 PM EDT TUE APR 24 2018

Note: "FAIR" indicates few or no clouds below 12,000 feet
with no significant weather and/or obstructions to visibility.
 TC=TEMPERATURE CELSIUS

 * =Non NWS site. Station does not report precipitation (e.g. rain,
    snow, etc.), thunder, or fog.

DCZ001-MDZ009-015-VAZ040>042-051-053>054-250300-
WASHINGTON METRO

CITY           SKY/WX    TMP DP  RH WIND       PRES   REMARKS
WASHINGTON NAT RAIN      55  52  89 NE10      30.02S FOG
DULLES         LGT RAIN  53  53 100 NE10      30.00F FOG
ANDREWS AFB    LGT RAIN  54  52  94 NE10G20   29.99F FOG
FT BELVOIR     LGT RAIN  54  52  94 CALM      29.99F FOG
QUANTICO       LGT RAIN  55  55 100 NE10      29.99F
COLLEGE PARK*  CLOUDY    53  51  94 NE7       30.01F
LEESBURG*      RAIN      50  50 100 NE12      30.03S
MANASSAS*      LGT RAIN  54  52  93 NE7       30.00F
GAITHERSBURG*  RAIN      52  50  93 E6        30.03F FOG

$$

MDZ006>007-011-014-250300-
BALTIMORE METRO

CITY           SKY/WX    TMP DP  RH WIND       PRES   REMARKS
BWI AIRPORT    LGT RAIN  53  53 100 NE17      30.04F FOG
MD SCIENCE CTR   N/A     55  53  93 MISG      30.06F
MARTIN STATE   LGT RAIN  55  55 100 NE8       30.10F
ANNAPOLIS      LGT RAIN  56  32  40 E13G22    30.02F
FORT MEADE*    CLOUDY    52  50  93 E8G17     30.05F

$$

MDZ012-015-019>023-250300-
MARYLAND EASTERN SHORE

CITY           SKY/WX    TMP DP  RH WIND       PRES   REMARKS
OCEAN CITY     LGT RAIN  52  52 100 E9        30.04F FOG
SALISBURY      LGT RAIN  56  55  97 E16       30.02F FOG
BAY BRIDGE AP* LGT RAIN  54  52  94 NE9       30.04F FOG
CAMBRIDGE*       N/A     55  55 100 E12       30.01F FOG
EASTON*        LGT RAIN  54  52  94 E10       30.06F

$$

MDZ017>025-250300-
SOUTHERN MARYLAND

CITY           SKY/WX    TMP DP  RH WIND       PRES   REMARKS
PATUXENT RIVER RAIN      57  55  93 E12       29.98F FOG
ST INIGOES     NOT AVBL
LEONARDTOWN*   CLOUDY    54  54 100 NE7       29.99F

$$

MDZ003>005-250300-
NORTH CENTRAL MARYLAND

CITY           SKY/WX    TMP DP  RH WIND       PRES   REMARKS
FREDERICK*     RAIN      52  52 100 N7        30.08F
HAGERSTOWN APT CLOUDY    54  51  90 E12       30.04F
WESTMINSTER*   RAIN      52  52 100 E8G16     30.06F

$$

MDZ501>502-250300-
WESTERN MARYLAND

CITY           SKY/WX    TMP DP  RH WIND       PRES   REMARKS
OAKLAND*       CLOUDY    43  43 100 SE21G28   29.97R WCI  34
CUMBERLAND*    CLOUDY    54  54 100 NE5       30.06F

$$

VAZ025>031-250300-
SHENANDOAH VALLEY

CITY           SKY/WX    TMP DP  RH WIND       PRES   REMARKS
WINCHESTER*    DRIZZLE   50  50 100 NE5       30.03S
FRONT ROYAL*   CLOUDY    52  52 100 N3        30.00S
LURAY*         DRIZZLE   52  52 100 N10       29.97F
NEW MARKET*    CLOUDY    52  51  96 N8        29.96F
STAUNTON*      LGT RAIN  51  51  97 NW5       29.97S
WAYNESBORO*    CLOUDY    51  51  99 N5        29.95F

$$

WVZ021-048>050-054>055-250300-
EASTERN WEST VIRGINIA PANHANDLE

CITY           SKY/WX    TMP DP  RH WIND       PRES   REMARKS
MARTINSBURG    LGT RAIN  52  52 100 N8        30.02F FOG
PETERSBURG*    DRIZZLE   51  50  95 NW3       29.99S

$$

VAZ036>039-050-250300-
CENTRAL FOOTHILLS

CITY           SKY/WX    TMP DP  RH WIND       PRES   REMARKS
CHARLOTTESVILL LGT RAIN  55  53  93 NE10      29.94F FOG
CULPEPER*      LGT RAIN  55  53  94 NE6       29.99S
ORANGE*        LGT RAIN  54  52  94 CALM      29.96S
GORDONSVILLE*  CLOUDY    54  54 100 NE7       29.95S FOG
WARRENTON*     HVY RAIN  55  51  88 NE7       29.98S

$$

VAZ055>057-250300-
NORTH AND CENTRAL PIEDMONT

CITY           SKY/WX    TMP DP  RH WIND       PRES   REMARKS
FREDERICKSBRG* DRIZZLE   55  55 100 NE5       29.95F
STAFFORD*      HVY RAIN  55  55 100 NE9       30.00F

$$

NCZ024-NYZ072-PAZ021-071-VAZ022-071-250300-
OTHER REGIONAL OBSERVATIONS

CITY           SKY/WX    TMP DP  RH WIND       PRES   REMARKS
NEW YORK CITY  CLOUDY    56  45  66 VRB7      30.24F
PHILADELPHIA   LGT RAIN  54  50  86 E9        30.14F
PITTSBURGH     CLOUDY    51  50  96 E8        29.96F
ROANOKE        RAIN      55  53  93 N8        29.91S
RICHMOND       CLOUDY    58  58 100 E7        29.90F FOG
RALEIGH        CLOUDY    63  62  97 SE7       29.83S

$$

ANZ530>537-250300-
MARINE OBSERVATIONS

STATION/POSITION TIME  TEMP    WIND        PRES
                       AIR SEA DIR/SP/G
                 (UTC) (F)     (DEG/KT/KT) (MB)
THOMAS PT LIGHT  0200   53 53   50/ 16/ 17 1017.4F
BALT KEY BRIDGE  0148   53      70/ 15/ 18 1017.8F
COVE POINT       0148   54     100/ 10/ 12 1016.2F
LEWISETTA        0148   55 54  130/ 16/ 19 1014.1F
SOLOMONS ISLAND  0148   55 53   80/ 13/ 15 1014.9F
PINEY POINT      0148          120/ 19/ 20   N/A

$$




USA.gov is the U.S. government's official web portal to all federal, state and local government web resources and services.